Погода в Кури

Южная Корея     37°35′52″N   127°08′36″E
темп.,
°C
ветер,
м/с
пор.,
м/с
влажн.,
%
обл.,
%
осадки,
мм/ч
давл.,
гПа
погр.,
м
16 апреля, пт
пт1600:00+10ююз1343100 0.0 1017327
03:00+9ю2548100 0.0 1016399
06:00+9ююв3756100 0.0 1015419
09:00+11ююз41160100 0.0 10151262
12:00+11юз51068100 0.0 10161053
15:00+14зюз585111 0.1 10151318
18:00+12зюз463788 0.0 1016699
21:00+9зюз134598 0.0 1018244
17 апреля, сб
сб1700:00+7вюв115145 0.0 101822
03:00+6вюв11570 0.0 101622
06:00+5всв116089 0.0 101423
09:00+10зсз2440100 0.0 1014843
12:00+9зюз3652100 0.2 10141496
15:00+11з69427 0.2 10111940
18:00+9з69565 0.1 10111226
21:00+7з59612 0.1 1012800
18 апреля, вс
вс1800:00+7з496424 0.0 1013613
03:00+6зсз410735 0.0 1013665
06:00+6зсз410735 0.0 1013739
09:00+10сз611495 0.0 10141360
12:00+14сз68340 0.0 10141671
15:00+17зсз58250 0.0 10122037
18:00+15зсз58310 0.0 10121160
21:00+12зсз48460 0.0 1015477
19 апреля, пн
пн1900:00+10зюз13520 0.0 1016126
03:00+8юз11610 0.0 101629
06:00+6ю11700 0.0 101645
09:00+12юз13400 0.0 1017569
12:00+17з462320 0.0 10161143
15:00+19з5819100 0.0 10141155
18:00+17з47274 0.0 1014595
21:00+12з11420 0.0 101651
20 апреля, вт
вт2000:00+11юз11560 0.0 101821
03:00+9ю11640 0.0 101814
06:00+8юв11690 0.0 101911
09:00+15ю12440 0.0 1020436
12:00+20з23290 0.0 1020871
15:00+23з33242 0.0 10181274
18:00+20з353237 0.0 1019492
21:00+15з11443 0.0 102115